ATLAS CENTAUR 2 R/B

Satellite information

Favourite Embed

Satellite Type and Status

ROCKET BODYIN ORBIT

Key statistics

Satellite ATLAS CENTAUR 2 R/B at a glance.

Uptime

22503

Days in orbit

Revolutions

≈ 14.1

Per day

Orbit

LEO

Low Earth Orbit

Inclination

30.4

Latest

Satellite identification and parameters

Extended collection of information and parameters for ATLAS CENTAUR 2 R/B.

Object identification

Identified? True

Debris? False

Object name: ATLAS CENTAUR 2 R/B

International designator: 1963-047A

Object number (NORAD): 694

Object ID (CCSDS): 694

Country: UNITED STATES OF AMERICA (US)

Current information (Y/N): Y

RCS size: LARGE

Orbital parameters

Period: 102.066 minutes

Inclination: 30.3513 deg

SMA: 7234.593 km

Apoapsis: 1256.23 km

Periapsis: 456.686 km

RAAN: 132.1581 deg

Eccentricy: 0.0552584

Argument of periapsis: 69.5615 deg

Mean anomaly: 296.3426 deg

Mean motion: 14.10852415 rev/day

Mean motion (dot): 0.00002548 rev/day2

B* drag term: 0.00030517 1/REarth

Two-line elements (TLE)

Creation date: July 6, 2025, 6:05 p.m.

Reference frame: TEME

Reference center: EARTH

Epoch: July 6, 2025, 3:14 a.m. UTC

TLE line 0: 0 ATLAS CENTAUR 2 R/B

TLE line 1: 1 00694U 63047A 25187.13477300 .00002548 00000-0 30517-3 0 9995

TLE line 2: 2 00694 30.3513 132.1581 0552584 69.5615 296.3426 14.10852415 96769

Live tracking on map

Real-time ground track for satellite ATLAS CENTAUR 2 R/B.

In-orbit conjunctions

A list of the most updated potential collisions computed for object ATLAS CENTAUR 2 R/B.

Target Orbit TCA Probability of collision Miss distance Type
COSMOS 1000 LEO 2025-02-12 04:50:52 0.002166387 615.0 (m) PAYLOAD
SCOUT G-1 DEB SSO 2024-09-25 08:17:38 0.0001502281 501.0 (m) DEBRIS

Associated space launch

Test flight of the cryogenic Centaur stage.

ATLAS CENTAUR 2 R/B was lifted into orbit during the mission ‘Atlas Centaur | AC-2 Instrumentation Ring’, on board a Atlas Centaur space rocket.

The launch took place on Nov. 27, 1963, 7:03 p.m. from Launch Complex 36A.

For more information about the launch, click the button.

Launch to space Atlas Centaur | AC-2 Instrumentation Ring
Atlas Centaur | AC-2 Instrumentation Ring

Agency: N/A

Status: Launch Successful

Launch date: Nov. 27, 1963, 7:03 p.m. UTC

Rocket: Atlas Centaur

Launch pad: Launch Complex 36A

Location: Cape Canaveral SFS, FL, USA

...

Latest news about this satellite

There are no fresh news available about this satellite. Check back as we update our databases every day.


Newsletter sign-up

Weekly statistics, charts and insights to help you stay on top of the space industry.